Regional Weather Roundup
Issued by NWS

Home | Current Version | Previous Version | Text Only | Print | Product List | Glossary On
Versions: 1 2 3 4 5 6 7 8 9 10 11 12 13 14 15 16 17 18 19 20 21 22 23 24 25 26 27 28 29 30 31 32 33 34 35 36 37 38 39 40 41 42 43 44 45 46 47 48 49 50
000
ASUS43 KLMK 221302
RWRKY
KENTUCKY REGIONAL WEATHER ROUNDUP
NATIONAL WEATHER SERVICE LOUISVILLE KY
900 AM EDT MON SEP 22 2014

NOTE "FAIR" INDICATES FEW OR NO CLOUDS BELOW 12,000 FEET
WITH NO SIGNIFICANT WEATHER AND/OR OBSTRUCTIONS TO VISIBILITY.

KYZ001>023-026-027-061>063-070>075-221400-
WESTERN AND SOUTH CENTRAL KENTUCKY

CITY           SKY/WX    TMP DP  RH WIND       PRES   REMARKS
PADUCAH        SUNNY     60  53  77 N5        30.23R
HENDERSON      SUNNY     55  50  82 NE5       30.23S
OWENSBORO      SUNNY     57  52  84 N5        30.23R
HOPKINSVILLE   SUNNY     56  55  94 N9        30.20R
BOWLING GREEN  SUNNY     58  51  78 N3        30.20R
GLASGOW        SUNNY     56  49  79 NE3       30.19R
$$

KYZ024-025-028>034-038-045-046-053-221400-
NORTH CENTRAL KENTUCKY

CITY           SKY/WX    TMP DP  RH WIND       PRES   REMARKS
LOUISVILLE/SDF MOSUNNY   56  47  71 N10       30.22R
LOUISVILLE/LOU SUNNY     56  48  74 N7        30.22R
FORT KNOX      MOSUNNY   55  49  82 N6        30.21R
$$

KYZ035>037-039>044-047>052-055>060-089>105-221400-
NORTHEAST KENTUCKY

CITY           SKY/WX    TMP DP  RH WIND       PRES   REMARKS
LEXINGTON      SUNNY     54  48  80 N9        30.20R
COVINGTON      PTSUNNY   49  41  74 N10       30.20R
FRANKFORT      SUNNY     51  47  86 NW5       30.20R
$$

KYZ054-064>069-076>088-106>120-221400-
SOUTHEAST KENTUCKY

CITY           SKY/WX    TMP DP  RH WIND       PRES   REMARKS
JACKSON        SUNNY     52  47  83 NW3       30.16R
LONDON         SUNNY     55  48  77 N8        30.18R
SOMERSET       SUNNY     54  48  82 NE7       30.20R
MIDDLESBORO    SUNNY     54  50  86 CALM      30.16S
MONTICELLO     SUNNY     55  51  86 CALM      30.20R
$$




USA.gov is the U.S. government's official web portal to all federal, state and local government web resources and services.